When you browse on this site, cookies collect data to enhance your experience and personalize the content and advertising you see.
Visit our Privacy Policy to learn more. By continuing to use the site, you agree to this use of cookies and data.
  • In Hungary
  • List of Countries
  • For 7 days
  • Water Temperature
  • Satellite Maps
  • Weather Map
  • News
  • Weather Widgets
  • user-avatar
    Login

    Hourly Weather Shihany-2

    Today, 12 December, Wednesday

    Time Temperature Precipitation Wind Pressure Humidity
    00:00 -7°C° 0.1 mm 3 mps 747 mmHg 93%
    01:00 -6°C° 0.2 mm 3 mps 747 mmHg 94%
    02:00 -7°C° 0.2 mm 4 mps 747 mmHg 94%
    03:00 -8°C° 0 mm 3 mps 747 mmHg 91%
    04:00 -8°C° 0 mm 3 mps 746 mmHg 91%
    05:00 -8°C° 0 mm 3 mps 746 mmHg 91%
    06:00 -9°C° 0 mm 4 mps 746 mmHg 91%
    07:00 -9°C° 0 mm 4 mps 746 mmHg 91%
    08:00 -10°C° 0 mm 4 mps 746 mmHg 91%
    09:00 -10°C° 0 mm 4 mps 746 mmHg 91%
    10:00 -9°C° 0 mm 4 mps 745 mmHg 91%
    11:00 -8°C° 0 mm 4 mps 745 mmHg 91%
    12:00 -8°C° 0 mm 4 mps 745 mmHg 91%
    13:00 -8°C° 0 mm 4 mps 745 mmHg 92%
    14:00 -8°C° 0 mm 4 mps 745 mmHg 92%
    15:00 -8°C° 0 mm 4 mps 744 mmHg 91%
    16:00 -8°C° 0.2 mm 4 mps 744 mmHg 92%
    17:00 -8°C° 0.2 mm 4 mps 744 mmHg 93%
    18:00 -7°C° 0.2 mm 3 mps 744 mmHg 95%
    19:00 -7°C° 0.4 mm 3 mps 744 mmHg 95%
    20:00 -6°C° 0.4 mm 3 mps 744 mmHg 96%
    21:00 -6°C° 0.4 mm 3 mps 744 mmHg 97%
    22:00 -6°C° 0.2 mm 3 mps 744 mmHg 97%
    23:00 -4°C° 0.2 mm 2 mps 744 mmHg 97%

    Tomorrow, 13 December, Thursday

    Time Temperature Precipitation Wind Pressure Humidity
    00:00 -4°C° 0.2 mm 2 mps 744 mmHg 97%
    01:00 -4°C° 0 mm 2 mps 744 mmHg 97%
    02:00 -1°C° 0 mm 1 mps 744 mmHg 97%
    03:00 -1°C° 0 mm 1 mps 744 mmHg 97%
    04:00 -1°C° 0 mm 1 mps 745 mmHg 97%
    05:00 -2°C° 0 mm 0 mps 745 mmHg 96%
    06:00 -2°C° 0 mm 0 mps 745 mmHg 96%
    07:00 -1°C° 0 mm 1 mps 745 mmHg 96%
    08:00 -1°C° 0 mm 1 mps 745 mmHg 95%
    09:00 -2°C° 0 mm 1 mps 745 mmHg 95%
    10:00 -1°C° 0 mm 1 mps 746 mmHg 95%
    11:00 -2°C° 0 mm 2 mps 746 mmHg 96%
    12:00 -2°C° 0 mm 2 mps 746 mmHg 97%
    13:00 -2°C° 0 mm 2 mps 746 mmHg 97%
    14:00 -2°C° 0 mm 2 mps 746 mmHg 97%
    15:00 -2°C° 0 mm 2 mps 746 mmHg 96%
    16:00 -2°C° 0 mm 3 mps 746 mmHg 96%
    17:00 -4°C° 0 mm 3 mps 747 mmHg 95%
    18:00 -4°C° 0 mm 3 mps 747 mmHg 95%
    19:00 -4°C° 0 mm 4 mps 747 mmHg 94%
    20:00 -4°C° 0 mm 4 mps 746 mmHg 94%
    21:00 -5°C° 0 mm 4 mps 746 mmHg 93%
    22:00 -6°C° 0.2 mm 5 mps 746 mmHg 93%
    23:00 -6°C° 0.2 mm 5 mps 746 mmHg 93%

    Day after tomorrow, 14 December, Friday

    Time Temperature Precipitation Wind Pressure Humidity
    00:00 -6°C° 0.2 mm 5 mps 746 mmHg 92%
    01:00 -8°C° 0.5 mm 6 mps 746 mmHg 93%
    02:00 -8°C° 0.5 mm 6 mps 746 mmHg 93%
    03:00 -8°C° 0.5 mm 6 mps 746 mmHg 93%
    04:00 -8°C° 0.7 mm 6 mps 745 mmHg 93%
    05:00 -8°C° 0.7 mm 6 mps 745 mmHg 93%
    06:00 -9°C° 0.7 mm 6 mps 745 mmHg 93%
    07:00 -8°C° 0.4 mm 6 mps 745 mmHg 93%
    08:00 -8°C° 0.4 mm 6 mps 745 mmHg 93%
    09:00 -8°C° 0.4 mm 6 mps 745 mmHg 92%
    10:00 -8°C° 0.4 mm 6 mps 744 mmHg 92%
    11:00 -8°C° 0.4 mm 6 mps 744 mmHg 92%
    12:00 -8°C° 0.4 mm 6 mps 744 mmHg 92%
    13:00 -6°C° 0.4 mm 6 mps 744 mmHg 93%
    14:00 -6°C° 0.4 mm 6 mps 744 mmHg 93%
    15:00 -6°C° 0.4 mm 6 mps 744 mmHg 93%
    16:00 -6°C° 0.3 mm 6 mps 744 mmHg 93%
    17:00 -6°C° 0.3 mm 5 mps 744 mmHg 93%
    18:00 -6°C° 0.3 mm 5 mps 744 mmHg 93%
    19:00 -6°C° 0.2 mm 5 mps 744 mmHg 93%
    20:00 -6°C° 0.2 mm 5 mps 744 mmHg 93%
    21:00 -6°C° 0.2 mm 5 mps 744 mmHg 92%
    22:00 -6°C° 0.2 mm 6 mps 744 mmHg 92%
    23:00 -6°C° 0.2 mm 6 mps 744 mmHg 92%

    15 December, Saturday

    Time Temperature Precipitation Wind Pressure Humidity
    00:00 -6°C° 0.2 mm 6 mps 744 mmHg 92%
    01:00 -6°C° 0.2 mm 6 mps 744 mmHg 92%
    02:00 -6°C° 0.2 mm 6 mps 745 mmHg 92%
    03:00 -6°C° 0.2 mm 6 mps 745 mmHg 92%
    04:00 -6°C° 0.1 mm 6 mps 745 mmHg 92%
    05:00 -6°C° 0.1 mm 6 mps 745 mmHg 92%
    06:00 -6°C° 0.1 mm 6 mps 745 mmHg 92%
    07:00 -6°C° 0.1 mm 6 mps 745 mmHg 91%
    08:00 -6°C° 0.1 mm 6 mps 746 mmHg 91%
    09:00 -6°C° 0.1 mm 6 mps 746 mmHg 91%
    10:00 -6°C° 0.1 mm 6 mps 746 mmHg 91%
    11:00 -6°C° 0.1 mm 6 mps 747 mmHg 91%
    12:00 -5°C° 0.1 mm 6 mps 747 mmHg 90%
    13:00 -6°C° 0 mm 6 mps 747 mmHg 90%
    14:00 -6°C° 0 mm 6 mps 748 mmHg 91%
    15:00 -6°C° 0 mm 5 mps 748 mmHg 91%
    16:00 -6°C° 0 mm 5 mps 748 mmHg 91%
    17:00 -7°C° 0 mm 5 mps 749 mmHg 91%
    18:00 -7°C° 0 mm 5 mps 749 mmHg 92%
    19:00 -8°C° 0 mm 5 mps 750 mmHg 92%
    20:00 -8°C° 0 mm 5 mps 750 mmHg 92%
    21:00 -8°C° 0 mm 4 mps 750 mmHg 92%
    22:00 -9°C° 0 mm 4 mps 751 mmHg 92%
    23:00 -9°C° 0 mm 4 mps 751 mmHg 93%

    16 December, Sunday

    Time Temperature Precipitation Wind Pressure Humidity
    00:00 -10°C° 0 mm 4 mps 752 mmHg 93%
    01:00 -10°C° 0 mm 4 mps 752 mmHg 92%
    02:00 -11°C° 0 mm 4 mps 752 mmHg 92%
    03:00 -12°C° 0 mm 4 mps 753 mmHg 92%
    04:00 -14°C° 0 mm 4 mps 753 mmHg 91%
    05:00 -14°C° 0 mm 3 mps 753 mmHg 90%
    06:00 -15°C° 0 mm 3 mps 753 mmHg 89%
    07:00 -15°C° 0 mm 3 mps 754 mmHg 88%
    08:00 -16°C° 0 mm 3 mps 754 mmHg 88%
    09:00 -16°C° 0 mm 3 mps 754 mmHg 87%
    10:00 -15°C° 0 mm 3 mps 755 mmHg 88%
    11:00 -15°C° 0 mm 3 mps 755 mmHg 89%
    12:00 -14°C° 0 mm 3 mps 755 mmHg 90%
    13:00 -14°C° 0 mm 3 mps 755 mmHg 91%
    14:00 -14°C° 0 mm 3 mps 755 mmHg 92%
    15:00 -14°C° 0 mm 2 mps 755 mmHg 93%
    16:00 -13°C° 0 mm 2 mps 756 mmHg 93%
    17:00 -13°C° 0 mm 2 mps 756 mmHg 93%
    18:00 -12°C° 0 mm 2 mps 756 mmHg 93%
    19:00 -12°C° 0 mm 2 mps 756 mmHg 93%
    20:00 -12°C° 0 mm 2 mps 756 mmHg 93%
    21:00 -10°C° 0 mm 2 mps 756 mmHg 93%
    22:00 -10°C° 0 mm 2 mps 757 mmHg 93%
    23:00 -10°C° 0 mm 2 mps 757 mmHg 93%

    17 December, Monday

    Time Temperature Precipitation Wind Pressure Humidity
    00:00 -10°C° 0 mm 2 mps 757 mmHg 93%
    01:00 -10°C° 0 mm 2 mps 757 mmHg 94%
    02:00 -10°C° 0 mm 2 mps 757 mmHg 94%
    03:00 -10°C° 0 mm 2 mps 757 mmHg 94%
    04:00 -10°C° 0 mm 2 mps 757 mmHg 94%
    05:00 -10°C° 0 mm 2 mps 757 mmHg 95%
    06:00 -10°C° 0 mm 2 mps 757 mmHg 95%
    07:00 -9°C° 0 mm 2 mps 757 mmHg 95%
    08:00 -9°C° 0 mm 2 mps 757 mmHg 95%
    09:00 -9°C° 0 mm 2 mps 757 mmHg 95%
    10:00 -9°C° 0 mm 2 mps 757 mmHg 94%
    11:00 -8°C° 0 mm 2 mps 757 mmHg 94%
    12:00 -9°C° 0 mm 3 mps 757 mmHg 93%
    13:00 -8°C° 0 mm 2 mps 757 mmHg 93%
    14:00 -9°C° 0 mm 2 mps 757 mmHg 94%
    15:00 -9°C° 0 mm 2 mps 757 mmHg 94%
    16:00 -9°C° 0 mm 2 mps 757 mmHg 94%
    17:00 -10°C° 0 mm 2 mps 757 mmHg 95%
    18:00 -10°C° 0 mm 2 mps 757 mmHg 95%
    19:00 -10°C° 0 mm 2 mps 757 mmHg 95%
    20:00 -10°C° 0 mm 2 mps 757 mmHg 95%
    21:00 -10°C° 0 mm 2 mps 757 mmHg 95%
    22:00 -10°C° 0 mm 2 mps 757 mmHg 96%
    23:00 -10°C° 0 mm 2 mps 757 mmHg 96%
    Show more